Location: ????????
(55.5667°N, 37.5833°E)
Time: 08:02:27
(UTC+00:00)

Cosmos 2219 Rocket - Pass Details

Date: 14 April 2026
Orbit: 826 x 846 km, 71.0° (Epoch: 14 May)

Event Time Altitude Azimuth Distance (km) Brightness Sun altitude
Rises 18:27:01 0° 240° (WSW) 3,361 5.5 -14.6°
Reaches altitude 10° 18:29:35 10° 247° (WSW) 2,432 4.9 -14.8°
Maximum altitude 18:34:51 41° 318° (NW) 1,187 3.6 -15.4°
Drops below altitude 10° 18:40:09 10° 28° (NNE) 2,450 4.8 -15.9°
Sets 18:42:45 0° 36° (NE) 3,390 5.5 -16.1°
